Flag for Dominican Republic Weather past 2 weeks in Puerto Plata, Dominican Republic

Now
91 °F

Scattered clouds.


Feels Like: 100 °F
Forecast: 76 / 89 °F
Wind: 17 mph from East

Location: Puerto Plata International

Current Time: Aug 20, 2014 at 2:55:46 PM

Latest Report: Aug 20, 2014 at 2:00 PM


Visibility: N/A

Pressure: 30.01 "Hg

Humidity: 56%

Dew point: 73 °F

Location of Puerto PlataLocation

Historic Weather in Puerto Plata — Graph

°F

Puerto Plata temperature yesterday

Maximum temperature yesterday: 91 °F (at 12:00 PM)
Minimum temperature yesterday: 77 °F (at 5:00 AM)
Average temperature yesterday: 86 °F

Past Weeks' High & Low Weather Summary

 TemperatureHumidityPressure
High97 °F (Aug 13, 2:00 PM)100% (Aug 12, 7:00 AM)30.07 "Hg (Aug 12, 7:00 AM)
Low75 °F (Aug 9, 7:00 AM)35% (Aug 11, 4:00 PM)29.92 "Hg (Aug 18, 4:00 PM)
Average86 °F74%30.00 "Hg
* Reported Aug 5 1:00 PM — Aug 20 1:00 PM, Puerto Plata, Weather by CustomWeather, © 2014

Note: Actual official high and low records may vary slightly from our data, if they occured in-between our weather recording intervals... More about our weather records

Advertising

Puerto Plata weather history for previous 24 hours

 ConditionsComfort  
Time TempWeatherWind HumidityBarometerVisibility
1:00 PM
Aug 20
90 °FScattered clouds.14 mph63%30.01 "HgN/A
12:00 PM86 °FScattered clouds.17 mph70%30.04 "HgN/A
11:00 AM79 °FBroken clouds.No wind89%30.04 "HgN/A
10:00 AM81 °FScattered clouds.12 mph89%30.04 "HgN/A
9:00 AM79 °FScattered clouds.No wind94%30.01 "HgN/A
8:00 AM77 °FRain. Broken clouds.12 mph100%30.01 "Hg2 mi
7:00 AM79 °FPassing clouds.No wind94%29.98 "HgN/A
5:00 AM79 °FPassing clouds.9 mph94%29.98 "HgN/A
2:00 AM81 °FPassing clouds.No wind89%30.01 "HgN/A
11:00 PM
Aug 19
82 °FPassing clouds.7 mph84%30.01 "HgN/A
8:00 PM84 °FPassing clouds.12 mph79%29.98 "HgN/A
7:00 PM84 °FScattered clouds.12 mph79%29.95 "HgN/A
6:00 PM86 °FScattered clouds.12 mph75%29.95 "HgN/A
5:00 PM90 °FScattered clouds.18 mph67%29.95 "HgN/A
4:00 PM90 °FPassing clouds.17 mph67%29.95 "HgN/A
3:00 PM91 °FPassing clouds.17 mph63%29.95 "HgN/A
2:00 PM91 °FPassing clouds.21 mph59%29.98 "HgN/A
Weather by CustomWeather, © 2014

See weather overviewHow to use our weather pages